DELTA 1 DEB, 7176

Orbit data source: Space-Track

DELTA 1 DEB, 7176 is space debris in SSO originally from a launch on Tue, 06 Nov 1973 UTC launched from the Air Force Western Test Range (AFWTR). Debris objects in space refer to the collection of defunct objects orbiting the Earth. Examples of debris include non-operational satellites, rocket bodies, and fragments generated from explosions, collisions, or faulty payload assembly.

Loading next visibility...
Identifier
7176, 1973-086EN
Orbit
SSO
Country
Flag of USUS
Related business
Manufacturer
Unknown
Mission
Spacecraft
Bus & Motor
Unknown
Mass
Unknown
Launch date (UTC)
1973-11-06 (53 years ago)
Launch vehicle
Unknown
Launch site
Air Force Western Test Range (AFWTR)
Object type
Payload
Rocket body
Debris
Shape & HBR
Unknown shape, 0.1 m
Radar Cross Section
Medium (>0.1 m² and <1 m²)

Expand to show TLE details & history
Last TLE update: 1 day ago

TLE from 1 day ago
0 DELTA 1 DEB
1 07176U 73086EN  26206.33939792 -.00000018  00000-0  15044-3 0  9993
2 07176 102.2217 139.3540 0176423 291.3205 196.5185 12.75754310452469
Epoch: 2026-07-25T08:08Z
TLE epoch observation values (Epoch: 2026-07-25T08:08:43.980Z)
Latitude
51.14362°
Longitude
-90.3639°
Altitude
1,497.649 km
Speed
7.06 km/s
True Right ascension
22h 19m 29s
True Declination
50° 59' 29"
Sunlit
Object was in daylight at epoch
Visualization orbit readout
Latitude
Unknown
Longitude
Unknown
Altitude
Unknown
Speed
Unknown
Apparent Right ascension
Unknown
Apparent Declination
Unknown
Sunlit
N/A
Visualization observer readout
Local Sidereal Time
23:16:43
Azimuth
Unknown
Elevation
Unknown
Doppler factor
Unknown
Orbital elements
Apogee altitude
1,492.579 km
Perigee altitude
1,219.678 km
Semi-major axis
7,734.265 km
Eccentricity
0.01764
Inclination
102.2217°
RAAN
139.354°
Arg. of periapsis
291.3205°
True anomaly
195.95561°
Mean anomaly
196.5185°
Eccentric anomaly
196.23588°
Mean motion
3.19091 °/min
Orbital period
112.82 mins
BSTAR
0.00015044
Loading maneuver chart data...
Computing Atmospheric mass density...
Loading historical data...
Loading historical data...
Loading historical data...
Loading historical data...
Loading historical data...
Loading historical data...
Loading historical data...

Documentation

Showing up to 5 results
|